Weather History for Malmstrom AFB, MT

Change the Weather History Date:

Tuesday, April 9, 2013

  Actual Average (KGTF) Record (KGTF)
Temperature  
Mean Temperature 23 °F 41 °F  
Max Temperature 34 °F 54 °F 79 °F (1996)
Min Temperature 12 °F 29 °F 9 °F (2013)
Degree Days  
Heating Degree Days 42 24  
Month to date heating degree days 224  
Since 1 July heating degree days 6682  
Cooling Degree Days 0 0  
Month to date cooling degree days 0  
Year to date cooling degree days 0  
Moisture  
Dew Point 15 °F    
Average Humidity 72    
Maximum Humidity 86    
Minimum Humidity 54    
Precipitation  
Precipitation 0.00 in 0.05 in 0.45 in (1979)
Month to date precipitation 0.38  
Year to date precipitation 2.27  
Snow  
Snow 0.00 in 0.30 in 5.20 in (1995)
Month to date snowfall 3.0  
Since 1 July snowfall 54.9  
Snow Depth -    
Sea Level Pressure  
Sea Level Pressure 30.53 in    
Wind  
Wind Speed 6 mph (SSE)    
Max Wind Speed 13 mph    
Max Gust Speed -    
Visibility 10 miles    
Events      
T = Trace of Precipitation, MM = Missing Value Source: NWS Daily Summary

Daily Weather History Graph

Daily Weather History Graph

Search for Another Location

Airport:

Trip Planner

Search our weather history database for the weather conditions in past years. The results will help you decide how hot, cold, wet, or windy it might be!

Date:

Astronomy

Apr. 09, 2013 Rise Set
Actual Time 6:47 AM MDT 8:06 PM MDT
Civil Twilight 6:15 AM MDT 8:38 PM MDT
Nautical Twilight 5:37 AM MDT 9:16 PM MDT
Astronomical Twilight 4:56 AM MDT 9:57 PM MDT
Moon 6:13 AM MDT (4/9) 7:46 PM MDT (4/9)
Length of Visible Light 14h 22m
Length of Day
13h 19m
Waning Crescent, 0% of the Moon is Illuminated
Apr 9
Waning Crescent
Apr 10
New
Apr 18
First Quarter
Apr 25
Full
May 2
Last Quarter

Hourly Weather History & Observations

Time (MDT) Temp. Windchill Dew Point Humidity Pressure Visibility Wind Dir Wind Speed Gust Speed Precip Events Conditions
12:40 AM 19.4 °F 10.4 °F 15.8 °F 86% 30.29 in 10.0 mi SSW 6.9 mph - N/A   Overcast
12:56 AM 19.9 °F 12.1 °F 16.0 °F 85% 30.56 in 10.0 mi SSW 5.8 mph - N/A   Overcast
1:56 AM 21.0 °F 13.4 °F 15.1 °F 78% 30.55 in 10.0 mi WSW 5.8 mph - N/A   Partly Cloudy
2:56 AM 19.9 °F 13.4 °F 14.0 °F 78% 30.55 in 10.0 mi SW 4.6 mph - N/A   Partly Cloudy
3:56 AM 14.0 °F 8.2 °F 10.0 °F 84% 30.58 in 10.0 mi SSW 3.5 mph - N/A   Clear
4:56 AM 12.0 °F 4.1 °F 7.0 °F 80% 30.62 in 10.0 mi SSW 4.6 mph - N/A   Clear
5:56 AM 14.0 °F 5.1 °F 10.0 °F 84% 30.60 in 10.0 mi SSW 5.8 mph - N/A   Clear
6:56 AM 12.9 °F 6.9 °F 9.0 °F 84% 30.63 in 10.0 mi South 3.5 mph - N/A   Clear
7:56 AM 12.0 °F 4.1 °F 8.1 °F 84% 30.63 in 10.0 mi SE 4.6 mph - N/A   Clear
8:56 AM 18.0 °F 11.1 °F 12.9 °F 81% 30.63 in 10.0 mi SSE 4.6 mph - N/A   Clear
9:56 AM 21.0 °F 16.2 °F 15.1 °F 78% 30.62 in 10.0 mi South 3.5 mph - N/A   Clear
10:56 AM 23.0 °F 17.0 °F 16.0 °F 74% 30.61 in 10.0 mi South 4.6 mph - N/A   Clear
11:56 AM 25.0 °F - 16.0 °F 69% 30.60 in 10.0 mi Calm Calm - N/A   Clear
12:56 PM 28.0 °F 21.7 °F 16.0 °F 61% 30.57 in 10.0 mi ENE 5.8 mph - N/A   Clear
1:56 PM 28.9 °F 19.8 °F 18.0 °F 64% 30.55 in 10.0 mi East 10.4 mph - N/A   Clear
2:56 PM 30.0 °F 25.2 °F 17.1 °F 59% 30.53 in 10.0 mi ENE 4.6 mph - N/A   Clear
3:56 PM 33.1 °F 25.5 °F 18.0 °F 54% 30.52 in 10.0 mi East 9.2 mph - N/A   Clear
4:56 PM 34.0 °F 26.6 °F 19.0 °F 54% 30.49 in 10.0 mi East 9.2 mph - N/A   Clear
5:56 PM 34.0 °F 26.0 °F 19.0 °F 54% 30.47 in 10.0 mi ESE 10.4 mph - N/A   Clear
6:56 PM 33.1 °F 24.9 °F 18.0 °F 54% 30.45 in 10.0 mi ESE 10.4 mph - N/A   Clear
7:56 PM 28.9 °F 18.6 °F 19.0 °F 67% 30.44 in 10.0 mi ESE 12.7 mph - N/A   Clear
8:56 PM 27.0 °F 17.3 °F 17.1 °F 66% 30.44 in 10.0 mi ESE 10.4 mph - N/A   Partly Cloudy
9:56 PM 27.0 °F 18.0 °F 18.0 °F 69% 30.43 in 10.0 mi ESE 9.2 mph - N/A   Overcast
10:56 PM 28.0 °F 22.8 °F 19.0 °F 69% 30.41 in 10.0 mi ESE 4.6 mph - N/A   Overcast
11:56 PM 28.0 °F 22.8 °F 19.9 °F 72% 30.38 in 10.0 mi ESE 4.6 mph - N/A   Overcast